Погода в Барагхане

Россия / Республика Бурятия     54°09′12″N   110°09′43″E
темп.,
°C
ветер,
м/с
пор.,
м/с
влажн.,
%
обл.,
%
осадки,
мм/ч
давл.,
гПа
погр.,
м
14 апреля, ср
ср1423:00−2юз238055 0.2 100982
02:00−2з248214 0.9 1010148
05:00−4з44727 0.1 101275
08:00−1зсз454710 0.1 10141072
11:00+1зсз463412 0.0 10141871
14:00+1зсз463342 0.1 10132150
17:00+1зсз353465 0.0 10131858
20:00−3зсз456597 0.0 1015105
15 апреля, чт
чт1523:00−4з226973 0.0 101454
02:00−4зюз227258 0.1 101266
05:00−6з227796 0.0 101256
08:00−3юз1259100 0.0 1012450
11:000юв1238100 0.0 10101621
14:00+1зюз1235100 0.1 10091859
17:000зсз2347100 0.1 10111061
20:00−3зсз446693 0.1 1014101
16 апреля, пт
пт1623:00−4зсз336937 0.0 101680
02:00−5зсз227259 0.0 101852
05:00−6з2273100 0.0 102039
08:00−3юз235994 0.0 1020513
11:00+1юз233797 0.0 10191338
14:00+3з243840 0.0 10161295
17:00+2з344751 0.0 1016819
20:00−2з2269100 0.0 101850
17 апреля, сб
сб1723:00−2зюз2275100 0.0 101746
02:00−2зюз228074 0.0 101528
05:00−3з118285 0.0 101413
08:00+1ююв126524 0.0 1013296
11:00+7ююв234551 0.0 1009881
14:00+10ююз143788 0.0 10061498
17:00+10зсз343729 0.0 10051286
20:00+5зсз325819 0.0 100625
18 апреля, вс
вс1823:00+3з2261100 0.0 100613
02:00+2з226474 0.0 100517
05:000зсз457121 0.0 100787
08:00+3зсз345840 0.0 1010426
11:00+4зсз344399 0.0 10111045
14:00+5сз43270 0.0 10121253
17:00+5сз32230 0.0 1012957
20:00+1сз22385 0.0 101525